STARLINK-4773 (53838 NORAD) Tracking and Keplerian Element Data

This shows tracking and keplerian element data for the satellite.

Feedback or suggestion? Click here.




ElementValue
Catalog53838
NameSTARLINK-4773
Epoch Orbit1053
Epoch Day325.33334491
Epoch Year2022
RAAN305.653
Inclination53.2174
Eccentricity0.0001022
Argument of Perigee78.1017
Mean Anonmoly302.7092
Mean Motion15.66113192
Decay Rate-0.01138326
L11 53838U 22114W 22325.33334491 -.01138326 00000+0 -12016-1 0 9997
L22 53838 53.2174 305.6530 0001022 78.1017 302.7092 15.66113192 10539



Live tracking and technical data element details for STARLINK-4773 (NORAD 53838). STARLINK-4773 can be tracked NOW for your location showing map with azimuth and elevation plus other details from your city location.







IsCatalogInMostPopularTable: catalog: 53838, numindb: -1

Insert: records affected: 1


GetName: 53838 STARLINK-4773

Hit Count: inserted at: Mon, 28 Nov 2022 05:53:38 GMT